Weather Roundup
Issued by NWS

Home | Current Version | Previous Version | Text Only | Print | Product List | Glossary On
Versions: 1 2 3 4 5 6 7 8 9 10 11 12 13 14 15 16 17 18 19 20 21 22 23 24 25 26 27 28 29 30 31 32 33 34 35 36 37 38 39 40 41 42 43 44 45 46 47 48 49 50
000
NZUS93 KARX 120710
HRRWXR

CURRENT HOURLY OBSERVATIONS ACROSS
MUCH OF THE UPPER MISSISSIPPI VALLEY
NATIONAL WEATHER SERVICE LA CROSSE WI
200 AM CDT SAT JUL 12 2014


...SOUTHEAST MINNESOTA...


CITY           SKY/WX    TMP DP  RH WIND       PRES   REMARKS
ROCHESTER      CLOUDY    68  66  93 S6        30.04F FOG
ROCHESTER/MAYO PTSUNNY   69  66  91 S5        30.03F
WINONA         CLOUDY    70  66  88 CALM      30.02F
AUSTIN         CLOUDY    70  66  88 CALM      30.02F FOG
ALBERT LEA     PTCLDY    70  66  88 CALM      30.02F FOG
DODGE CENTER   PTCLDY    70  66  88 SW8       30.03F
PRESTON        PTCLDY    67  66  95 S5        30.04F FOG
OWATONNA       MOCLDY    70  66  88 CALM      30.02S
FARIBAULT      MOCLDY    72  64  78 S5        30.01F
$$

...ELSEWHERE IN MINNESOTA...


CITY           SKY/WX    TMP DP  RH WIND       PRES   REMARKS
MINNEAPOLIS    MOCLDY    73  69  87 S3        29.99F
INTNL FALLS    CLEAR     54  52  93 CALM      29.99R
DULUTH         FOG       67  66  97 W8        29.99S VSB 1/2
RED WING       CLOUDY    72  66  83 CALM      30.00F
REDWOOD FALLS  MOCLDY    74  72  93 SW3       29.98F
MANKATO        MOCLDY    70  66  88 S7        30.00F
WORTHINGTON    CLOUDY    72  70  94 CALM      30.02F
FAIRMONT       PTCLDY    70  64  83 CALM      30.00F
$$

...SOUTHWEST WISCONSIN...


CITY           SKY/WX    TMP DP  RH WIND       PRES   REMARKS
LA CROSSE      PTCLDY    70  65  84 SE5       30.02F
PRAIRIE DU CHI MOCLDY    70  65  83 E5        30.02F
BOSCOBEL       CLOUDY    71  66  84 CALM      30.03F
LONE ROCK      CLOUDY    74  65  73 NE3       30.04F
PLATTEVILLE    PTCLDY    69  65  88 SE5       30.05F
FORT MC COY    PTCLDY    65  62  92 CALM      30.05S
CAMP DOUGLAS   PTCLDY    70  65  85 S10       30.03F
VIROQUA        CLOUDY    69  65  86 S5        30.05F
WIS DELLS      CLOUDY    69  61  75 S5        30.05F
$$

...ELSEWHERE IN WISCONSIN...


CITY           SKY/WX    TMP DP  RH WIND       PRES   REMARKS
MILWAUKEE      MOCLDY    69  59  70 S7        30.08F
MADISON        MOCLDY    71  62  73 S7        30.06F
GREEN BAY      CLEAR     66  58  75 S6        30.04F
EAU CLAIRE     CLOUDY    72  67  84 S6        30.01F
BLACK RVR FLS  CLOUDY    64  64  99 CALM      30.03S
MEDFORD        PTCLDY    65  63  92 S5        30.04F
WAUSAU         MOCLDY    68  61  78 S5        30.03F
WIS RAPIDS     CLEAR     66  61  84 S3        30.06S
MARSHFIELD     CLOUDY    66  63  90 SW5       30.05F
RICE LAKE      MOCLDY    67  65  93 SE5       30.02F
$$

...NORTHEAST IOWA...


CITY           SKY/WX    TMP DP  RH WIND       PRES   REMARKS
WATERLOO       MOCLDY    72  68  87 S5        30.01F
DUBUQUE        MOCLDY    70  66  87 S6        30.05F
DECORAH          N/A    N/A N/A N/A MISG        N/A
MASON CITY     PTCLDY    65  65 100 S3        30.04F FOG
CHARLES CITY   PTCLDY    68  66  94 S5        30.04F FOG
OELWEIN        MOCLDY    68  68 100 SE3       30.04F
$$

...ELSEWHERE IN IOWA...


CITY           SKY/WX    TMP DP  RH WIND       PRES   REMARKS
DES MOINES     CLOUDY    75  72  90 E5        29.99F THUNDER
IOWA CITY      CLOUDY    73  70  90 CALM      30.03F
FORT DODGE     CLOUDY    70  68  94 S3        30.03S
MARSHALLTOWN   MOCLDY    71  70  96 SE6       30.01F
CEDAR RAPIDS   MOCLDY    72  68  87 S6        30.02F
$$

...NORTHERN ILLINOIS...


CITY           SKY/WX    TMP DP  RH WIND       PRES   REMARKS
CHICAGO-OHARE  CLOUDY    72  59  63 S5        30.10F
DUPAGE         CLOUDY    72  61  68 S6        30.09F
CHICAGO-MIDWAY CLOUDY    77  60  55 S8        30.10F
MOLINE         PTCLDY    73  67  81 CALM      30.02F
ROCKFORD       CLOUDY    71  61  70 SE7       30.08F
STERLING       MOCLDY    72  64  78 SE6       30.05F
PEORIA         CLOUDY    77  66  68 S8        30.06F
$$

NOTE: "FAIR" INDICATES FEW OR NO CLOUDS BELOW 12,000 FEET WITH NO
SIGNIFICANT WEATHER AND/OR OBSTRUCTIONS TO VISIBILITY. WIND
SPEEDS ARE IN MILES-PER-HOUR.



USA.gov is the U.S. government's official web portal to all federal, state and local government web resources and services.